User: anonymous   Login
Location: Unspecified
(0.0000°N, 0.0000°E)
Time: 22:31:59
(UTC+00:00)
Language:

Hubble Space Telescope - Orbit

View from above orbital plane
View from above orbital plane
View from above satellite
View from above satellite

Ground track
Ground track

The orbit data is extracted from the following two-line orbital elements,

1 20580U 90037B   18342.88952546 +.00000455 +00000-0 +16808-4 0  9990
2 20580 028.4706 040.1376 0002484 216.7343 127.4713 15.09141084371884
Epoch (UTC): 08 December 2018 21:20:55
Eccentricity: 0.0002484
inclination: 28.4706°
perigee height: 537 km
apogee height: 540 km
right ascension of ascending node: 40.1376°
argument of perigee: 216.7343°
revolutions per day: 15.09141084
mean anomaly at epoch: 127.4713°
orbit number at epoch: 37188

The dashed part of the orbit path shows where the satellite is in the earth's shadow,  

DLR